LFKBLFKJ

Guest
Details From LFKB - Bastia Poretta
To LFKJ - Napoleon Bonaparte
Flight Number -
Tags generated
Created
Modified
Stats Distance 51 nm / 94 km
Max Altitude 400 ft / 122 m
Waypoints 3
Social Downloads 2
Likes 0
Share

Download

Looking for another format? Having issues loading an existing format? Contact us
Advertisement - Login to hide

Notes

Basic altitude profile: - Ascent Rate: 800ft/min - Ascent Speed: 170kts - Cruise Altitude: 100000ft - Cruise Speed: 180kts - Descent Rate: 200ft/min - Descent Speed: 170kts Options: - Use NATs: yes - Use PACOTS: yes - Use low airways: yes - Use high airways: yes

Route

LFKB BTA LFKJ

ID Type Via Altitude (ft/m) Position (lat/lon) Dist (leg/tot) Name
O LFKB APT - 0 / 0 42.55251 / 9.48371 - / 0 nm Bastia Poretta
BTA VOR - 400 / 122 42.57369 / 9.47459 1 / 1 nm BASTIA PORETTA VOR-DME
O LFKJ APT - 0 / 0 41.92289 / 8.79959 49 / 50 nm Napoleon Bonaparte

Altitude Profile

Advertisement - Login to hide

LFKB

Details ICAO LFKB (BIA)
Name Bastia Poretta
Region France
Timezone Europe/Paris (UTC+2.0)
Stats Elevation 24 ft / 7 m (AMSL)
Location 42.552600° 9.483750°
Runways 1
Magnetic Variation 2.965° E

METAR

LFKB 270600Z AUTO VRB02KT CAVOK 23/13 Q1016 TEMPO SCT070 FEW080CB BKN090

Decode

TAF

TAF LFKB 270200Z 2703/2803 24004KT 9999 FEW080 BKN120 TX29/2712Z TN17/2704Z TEMPO 2703/2802 SCT070 FEW080CB BKN090 BECMG 2708/2710 01010KT BECMG 2714/2717 VRB03KT

Decode

Departure Runways

ID Width Length Bearing (true/mag) Surface Threshold Overrun Markings Lighting
16 148 ft / 45 m 8,273 ft / 2,522 m 162.83° / 159.87° ASPHALT 0 ft / 0 m 102 ft / 31 m APP CENTERLINE EDGE THRESHOLD TDZ REIL-OMNI
34 148 ft / 45 m 8,273 ft / 2,522 m 342.84° / 339.87° ASPHALT 0 ft / 0 m 0 ft / 0 m PREC-APP CENTERLINE EDGE THRESHOLD TDZ REIL-OMNI

LFKJ

Details ICAO LFKJ (AJA)
Name Napoleon Bonaparte
Region France
Timezone Europe/Paris (UTC+2.0)
Stats Elevation 19 ft / 6 m (AMSL)
Location 41.921700° 8.801090°
Runways 1
Magnetic Variation 2.806° E

METAR

LFKJ 270600Z AUTO 04003KT 010V080 CAVOK 21/17 Q1014 TEMPO SCT060 FEW070CB BKN100

Decode

TAF

TAF LFKJ 270200Z 2703/2803 05005KT 9999 FEW080 BKN160 TEMPO 2703/2803 SCT060 FEW070CB BKN100 BECMG 2709/2711 23010KT BECMG 2717/2721 05006KT

Decode

Destination Runways

ID Width Length Bearing (true/mag) Surface Threshold Overrun Markings Lighting
02 148 ft / 45 m 7,904 ft / 2,409 m 24.84° / 22.03° CONCRETE 0 ft / 0 m 161 ft / 49 m PREC-APP CENTERLINE EDGE THRESHOLD REIL-OMNI
20 148 ft / 45 m 7,904 ft / 2,409 m 204.85° / 202.04° CONCRETE 741 ft / 226 m 230 ft / 70 m PREC-APP CENTERLINE EDGE THRESHOLD REIL-OMNI

Approach Navaids

Runway Type Ident Frequency Range Bearing (true/mag) Slope Elevation
02 LOC-ILS AC 110.30 MHz 18 nm / 33 km 24.85° / 22.04 ° - 19 ft / 6 m (AMSL)
02 DME AC 110.30 MHz 27 nm / 50 km - - 18 ft / 5 m (AMSL)
02 OM OM - - 24.94° / 22.14 ° - 17 ft / 5 m (AMSL)
02 GS AC 110.30 MHz 10 nm / 19 km 24.85° / 22.04 ° 3.00° 19 ft / 6 m (AMSL)

Popular Alternatives